Regional Weather Roundup
Issued by NWS

Home | Current Version | Previous Version | Text Only | Print | Product List | Glossary On
Versions: 1 2 3 4 5 6 7 8 9 10 11 12 13 14 15 16 17 18 19 20 21 22 23 24 25 26 27 28 29 30 31 32 33 34 35 36 37 38 39 40 41 42 43 44 45 46 47 48 49 50
000
ASUS45 KABQ 262010
RWRNM
NEW MEXICO REGIONAL WEATHER ROUNDUP
NATIONAL WEATHER SERVICE ALBUQUERQUE NM
200 PM MDT SUN MAR 26 2017

NOTE: "FAIR" MEANS FEW OR NO CLOUDS BELOW 12,000 FEET AGL WITH NO
       SIGNIFICANT WEATHER OR OBSTRUCTIONS TO VISION.

      THIS PRODUCT IS RELEASED AS TWO VERSIONS.  ONE VERSION NEAR
      THE TOP OF THE HOUR CONTAINING PRELIMINARY DATA FROM ALBUQUERQUE
      AND OTHER STATIONS.  A FINAL VERSION WITH ADDITIONAL DATA IS
      ISSUED ABOUT 10 MINUTES AFTER THE HOUR.

NMZ501-503-504-510>518-262100-
NORTHWEST PLATEAU/NORTHCENTRAL MOUNTAINS

CITY           SKY/WX    TMP DP  RH WIND       PRES   REMARKS
FARMINGTON     FAIR      56  35  45 W14G24    29.96F
LOS ALAMOS     FAIR      55  22  28 NW7G18    29.96S
SANTA FE       PTSUNNY   58  30  34 N16       29.92S
TAOS             N/A     52  32  46 W8        29.94S
ANGEL FIRE     FAIR      44  33  65 W17       29.97R

$$
NMZ402-403-502-505>509-262100-
WESTCENTRAL MOUNTAINS/SOUTHWEST MOUNTAINS

CITY           SKY/WX    TMP DP  RH WIND       PRES   REMARKS
GALLUP         FAIR      52  31  44 VRB5      30.03F
GRANTS         FAIR      56  26  30 NW14G31   30.01F
SILVER CITY    FAIR      64  22  20 W20G26    30.01F

$$
NMZ407-409-411-412-262100-
SOUTHERN DESERTS

CITY           SKY/WX    TMP DP  RH WIND       PRES   REMARKS
DEMING         FAIR      70  24  17 W15G24    29.97F
LAS CRUCES     FAIR      70  19  14 W17G30    29.96F
HOLLOMAN AFB   FAIR      69  17  14 W10       29.96F
ALAMOGORDO     FAIR      68  16  13 N8G18     29.94F
T OR C         FAIR      70   6   8 W12G21    29.91F

$$
NMZ519>523-262100-
CENTRAL VALLEYS/CENTRAL HIGHLANDS

CITY           SKY/WX    TMP DP  RH WIND       PRES   REMARKS
ALBUQUERQUE    FAIR      62  25  24 NW12      29.95F
DOUBLE EAGLE     N/A     61  28  29 W12       29.97F
MORIARTY ARPT  CLOUDY    63  28  26 W20       29.95R
CLINES CORNERS FAIR      56  26  31 W28G35    29.95R
BELEN          FAIR      63  26  24 W12G21    29.95F
SOCORRO        FAIR      69  17  13 N16G23    29.93S

$$
NMZ524>526-539-540-262100-
SOUTHCENTRAL MOUNTAINS

CITY           SKY/WX    TMP DP  RH WIND       PRES   REMARKS
RUIDOSO        FAIR      59   9  13 W21G30    29.97F

$$
NMZ527>531-262100-
NORTHEAST HIGHLANDS/NORTHEAST PLAINS

CITY           SKY/WX    TMP DP  RH WIND       PRES   REMARKS
LAS VEGAS      FAIR      60  23  24 N24G35    29.87F
RATON          FAIR      52  37  56 NE21G29   29.87R
CLAYTON        FAIR      61  37  41 N23G35    29.79R

$$
NMZ532>537-262100-
EASTCENTRAL PLAINS

CITY           SKY/WX    TMP DP  RH WIND       PRES   REMARKS
TUCUMCARI      PTSUNNY   73  29  19 N20G28    29.74S
CANNON AFB     FAIR      70  26  19 W25G33    29.78F
CLOVIS AIRPORT FAIR      72  28  20 W23G33    29.78F

$$
NMZ028-029-538-262100-
SOUTHEAST PLAINS

CITY           SKY/WX    TMP DP  RH WIND       PRES   REMARKS
ROSWELL        FAIR      77   9   7 W17G25      N/A
ARTESIA        FAIR      77  18  10 NW14G21   29.82F
CARLSBAD       FAIR      78  20  11 W21G37    29.82F
HOBBS          SUNNY     75  18  11 SW20G30   29.82F


$$




USA.gov is the U.S. government's official web portal to all federal, state and local government web resources and services.